TimeCST,TemperatureF,Dew PointF,Humidity,Sea Level PressureIn,VisibilityMPH,Wind Direction,Wind SpeedMPH,Gust SpeedMPH,PrecipitationIn,Events,Conditions,WindDirDegrees,DateUTC
12:15 AM,35.6,35.6,100,29.92,0.5,Calm,Calm,-,N/A,Fog,Fog,0,2012-11-07 06:15:00
12:35 AM,35.6,35.6,100,29.93,1.0,Calm,Calm,-,N/A,,Overcast,0,2012-11-07 06:35:00
12:55 AM,35.6,35.6,100,29.94,2.0,Calm,Calm,-,N/A,,Overcast,0,2012-11-07 06:55:00
1:15 AM,35.6,35.6,100,29.94,2.5,Calm,Calm,-,N/A,,Overcast,0,2012-11-07 07:15:00
1:35 AM,35.6,35.6,100,29.95,3.0,Calm,Calm,-,N/A,,Overcast,0,2012-11-07 07:35:00
1:55 AM,35.6,35.6,100,29.96,3.0,NNW,3.5,-,N/A,,Overcast,330,2012-11-07 07:55:00
2:15 AM,35.6,35.6,100,29.96,4.0,NNW,3.5,-,N/A,,Overcast,340,2012-11-07 08:15:00
2:37 AM,37.4,37.4,100,29.97,4.0,NNW,4.6,-,N/A,,Overcast,330,2012-11-07 08:37:00
2:55 AM,37.4,37.4,100,29.98,4.0,North,3.5,-,N/A,,Overcast,350,2012-11-07 08:55:00
3:15 AM,37.4,37.4,100,29.98,4.0,NNW,3.5,-,N/A,,Overcast,330,2012-11-07 09:15:00
3:39 AM,37.4,37.4,100,29.99,4.0,NW,4.6,-,N/A,,Overcast,320,2012-11-07 09:39:00
3:55 AM,37.4,37.4,100,29.99,5.0,NNE,3.5,-,N/A,,Overcast,30,2012-11-07 09:55:00
5:36 AM,35.6,35.6,100,30.03,7.0,ENE,3.5,-,N/A,,Overcast,60,2012-11-07 11:36:00
5:56 AM,35.6,35.6,100,30.04,7.0,ENE,5.8,-,N/A,,Overcast,70,2012-11-07 11:56:00
6:16 AM,35.6,33.8,93,30.05,7.0,Calm,Calm,-,N/A,,Overcast,0,2012-11-07 12:16:00
6:37 AM,35.6,33.8,93,30.06,7.0,Calm,Calm,-,N/A,,Overcast,0,2012-11-07 12:37:00
6:57 AM,35.6,33.8,93,30.07,10.0,Calm,Calm,-,N/A,,Overcast,0,2012-11-07 12:57:00
7:15 AM,33.8,33.8,100,30.08,5.0,Calm,Calm,-,N/A,,Overcast,0,2012-11-07 13:15:00
7:35 AM,33.8,33.8,100,30.09,5.0,Calm,Calm,-,N/A,,Overcast,0,2012-11-07 13:35:00
7:55 AM,33.8,33.8,100,30.10,5.0,Calm,Calm,-,N/A,,Overcast,0,2012-11-07 13:55:00
8:15 AM,33.8,33.8,100,30.10,5.0,Calm,Calm,-,N/A,,Overcast,0,2012-11-07 14:15:00
8:35 AM,35.6,33.8,93,30.10,7.0,Calm,Calm,-,N/A,,Overcast,0,2012-11-07 14:35:00
8:55 AM,35.6,33.8,93,30.10,10.0,Calm,Calm,-,N/A,,Overcast,0,2012-11-07 14:55:00
9:15 AM,35.6,33.8,93,30.10,10.0,NE,3.5,-,N/A,,Overcast,50,2012-11-07 15:15:00
9:35 AM,37.4,35.6,93,30.11,10.0,Calm,Calm,-,N/A,,Overcast,0,2012-11-07 15:35:00
9:55 AM,37.4,33.8,87,30.11,10.0,Calm,Calm,-,N/A,,Mostly Cloudy,0,2012-11-07 15:55:00
10:15 AM,37.4,33.8,87,30.12,10.0,Calm,Calm,-,N/A,,Overcast,0,2012-11-07 16:15:00
10:35 AM,39.2,33.8,81,30.12,10.0,Calm,Calm,-,N/A,,Overcast,0,2012-11-07 16:35:00
10:55 AM,39.2,33.8,81,30.12,10.0,North,5.8,-,N/A,,Overcast,350,2012-11-07 16:55:00
11:15 AM,39.2,33.8,81,30.12,10.0,NW,3.5,-,N/A,,Overcast,320,2012-11-07 17:15:00
11:35 AM,41.0,33.8,76,30.11,10.0,Calm,Calm,-,N/A,,Mostly Cloudy,0,2012-11-07 17:35:00
11:55 AM,41.0,32.0,70,30.11,10.0,Calm,Calm,-,N/A,,Mostly Cloudy,0,2012-11-07 17:55:00
12:15 PM,42.8,33.8,70,30.10,10.0,Calm,Calm,-,N/A,,Mostly Cloudy,0,2012-11-07 18:15:00
12:35 PM,41.0,32.0,70,30.10,10.0,NW,3.5,-,N/A,,Mostly Cloudy,320,2012-11-07 18:35:00
12:55 PM,41.0,32.0,70,30.10,10.0,Calm,Calm,-,N/A,,Scattered Clouds,0,2012-11-07 18:55:00
1:15 PM,42.8,32.0,66,30.09,10.0,Calm,Calm,-,N/A,,Mostly Cloudy,0,2012-11-07 19:15:00
1:35 PM,42.8,32.0,66,30.09,10.0,Calm,Calm,-,N/A,,Mostly Cloudy,0,2012-11-07 19:35:00
1:55 PM,42.8,32.0,66,30.08,10.0,NE,3.5,-,N/A,,Mostly Cloudy,40,2012-11-07 19:55:00
2:15 PM,41.0,32.0,70,30.09,10.0,Calm,Calm,-,N/A,,Overcast,0,2012-11-07 20:15:00
2:35 PM,41.0,32.0,70,30.09,10.0,NNW,3.5,-,N/A,,Overcast,330,2012-11-07 20:35:00
2:55 PM,41.0,32.0,70,30.10,10.0,NNW,3.5,-,N/A,,Overcast,330,2012-11-07 20:55:00
3:15 PM,41.0,33.8,76,30.11,10.0,Calm,Calm,-,N/A,,Mostly Cloudy,0,2012-11-07 21:15:00
3:35 PM,41.0,33.8,76,30.10,10.0,Calm,Calm,-,N/A,,Overcast,0,2012-11-07 21:35:00
3:55 PM,41.0,33.8,76,30.11,10.0,Calm,Calm,-,N/A,,Overcast,0,2012-11-07 21:55:00
4:15 PM,41.0,33.8,76,30.11,10.0,Calm,Calm,-,N/A,,Overcast,0,2012-11-07 22:15:00
4:35 PM,41.0,33.8,76,30.11,10.0,Calm,Calm,-,N/A,,Overcast,0,2012-11-07 22:35:00
4:55 PM,41.0,33.8,76,30.12,10.0,Calm,Calm,-,N/A,,Overcast,0,2012-11-07 22:55:00
5:15 PM,39.2,33.8,81,30.11,10.0,East,3.5,-,N/A,,Overcast,100,2012-11-07 23:15:00
5:35 PM,39.2,33.8,81,30.12,10.0,Calm,Calm,-,N/A,,Overcast,0,2012-11-07 23:35:00
5:55 PM,37.4,33.8,87,30.12,10.0,East,3.5,-,N/A,,Overcast,90,2012-11-07 23:55:00
6:15 PM,37.4,33.8,87,30.12,10.0,East,3.5,-,N/A,,Overcast,100,2012-11-08 00:15:00
6:35 PM,37.4,33.8,87,30.13,10.0,East,3.5,-,N/A,,Overcast,90,2012-11-08 00:35:00
6:55 PM,37.4,33.8,87,30.13,10.0,East,3.5,-,N/A,,Overcast,90,2012-11-08 00:55:00
7:15 PM,37.4,33.8,87,30.12,10.0,East,4.6,-,N/A,,Overcast,100,2012-11-08 01:15:00
7:35 PM,37.4,33.8,87,30.13,10.0,ESE,3.5,-,N/A,,Overcast,110,2012-11-08 01:35:00
7:55 PM,37.4,33.8,87,30.12,10.0,East,4.6,-,N/A,,Overcast,100,2012-11-08 01:55:00
8:15 PM,37.4,33.8,87,30.12,10.0,ESE,5.8,-,N/A,,Overcast,110,2012-11-08 02:15:00
8:35 PM,37.4,33.8,87,30.12,10.0,ESE,3.5,-,N/A,,Overcast,110,2012-11-08 02:35:00
8:55 PM,37.4,33.8,87,30.13,10.0,East,3.5,-,N/A,,Overcast,90,2012-11-08 02:55:00
9:15 PM,37.4,33.8,87,30.13,10.0,Calm,Calm,-,N/A,,Overcast,0,2012-11-08 03:15:00
9:35 PM,37.4,33.8,87,30.13,10.0,Calm,Calm,-,N/A,,Overcast,0,2012-11-08 03:35:00
9:55 PM,37.4,33.8,87,30.13,10.0,Calm,Calm,-,N/A,,Overcast,0,2012-11-08 03:55:00
10:15 PM,37.4,33.8,87,30.13,10.0,Calm,Calm,-,N/A,,Overcast,0,2012-11-08 04:15:00
10:35 PM,37.4,33.8,87,30.13,10.0,Calm,Calm,-,N/A,,Overcast,0,2012-11-08 04:35:00
10:55 PM,37.4,33.8,87,30.12,10.0,Calm,Calm,-,N/A,,Overcast,0,2012-11-08 04:55:00
11:15 PM,37.4,33.8,87,30.13,10.0,Calm,Calm,-,N/A,,Overcast,0,2012-11-08 05:15:00
11:35 PM,37.4,32.0,81,30.12,10.0,South,3.5,-,N/A,,Overcast,170,2012-11-08 05:35:00
11:55 PM,37.4,32.0,81,30.12,10.0,South,4.6,-,N/A,,Overcast,170,2012-11-08 05:55:00